Weather History for Milton, FL

Change the Weather History Date:

Friday, December 7, 2012

  Actual Average (KNSE) Record (KNSE)
Temperature  
Mean Temperature 62 °F -  
Max Temperature 68 °F 62 °F 77 °F (1998)
Min Temperature 57 °F 45 °F 27 °F (1997)
Degree Days  
Heating Degree Days 2    
Growing Degree Days 12 (Base 50)    
Moisture  
Dew Point 58 °F    
Average Humidity 87    
Maximum Humidity 94    
Minimum Humidity 76    
Precipitation  
Precipitation 0.00 in - - ()
Sea Level Pressure  
Sea Level Pressure 29.95 in    
Wind  
Wind Speed 7 mph (East)    
Max Wind Speed 12 mph    
Max Gust Speed -    
Visibility 10 miles    
Events      
Averages and records for this station are not official NWS values.
T = Trace of Precipitation, MM = Missing Value Source: NWS Daily Summary

Daily Weather History Graph

Daily Weather History Graph

Search for Another Location

Airport:

Trip Planner

Search our weather history database for the weather conditions in past years. The results will help you decide how hot, cold, wet, or windy it might be!

Date:

Astronomy

Dec. 07, 2012 Rise Set
Actual Time 6:32 AM CST 4:46 PM CST
Civil Twilight 6:06 AM CST 5:13 PM CST
Nautical Twilight 5:36 AM CST 5:43 PM CST
Astronomical Twilight 5:07 AM CST 6:12 PM CST
Moon 12:14 AM CST (12/7) 12:23 PM CST (12/7)
Length of Visible Light 11h 06m
Length of Day
10h 13m
Last Quarter, 38% of the Moon is Illuminated
Dec 7
Last Quarter
Dec 13
New
Dec 19
First Quarter
Dec 28
Full
Jan 4
Last Quarter

Hourly Weather History & Observations

Time (CST) Temp. Dew Point Humidity Pressure Visibility Wind Dir Wind Speed Gust Speed Precip Events Conditions
12:56 AM 57.9 °F 54.0 °F 87% 29.94 in 10.0 mi East 6.9 mph - N/A   Clear
1:56 AM 57.9 °F 55.0 °F 90% 29.94 in 10.0 mi East 5.8 mph - N/A   Clear
2:48 AM 59.0 °F 55.4 °F 88% 29.98 in 10.0 mi East 6.9 mph - N/A   Mostly Cloudy
2:56 AM 59.0 °F 55.9 °F 90% 29.93 in 10.0 mi ENE 9.2 mph - N/A   Mostly Cloudy
3:12 AM 57.2 °F 55.4 °F 94% 29.97 in 10.0 mi ENE 8.1 mph - N/A   Scattered Clouds
3:56 AM 57.0 °F 55.0 °F 93% 29.94 in 10.0 mi ENE 4.6 mph - N/A   Clear
4:56 AM 57.9 °F 55.9 °F 93% 29.94 in 10.0 mi East 6.9 mph - N/A   Clear
5:14 AM 57.2 °F 55.4 °F 94% 29.98 in 10.0 mi East 6.9 mph - N/A   Partly Cloudy
5:29 AM 57.2 °F 55.4 °F 94% 29.99 in 10.0 mi East 4.6 mph - N/A   Mostly Cloudy
5:56 AM 57.9 °F 55.9 °F 93% 29.96 in 10.0 mi East 4.6 mph - N/A   Overcast
6:56 AM 59.0 °F 57.0 °F 93% 29.97 in 10.0 mi ENE 8.1 mph - N/A   Overcast
7:56 AM 60.1 °F 57.9 °F 93% 29.98 in 10.0 mi East 8.1 mph - N/A   Overcast
8:19 AM 60.8 °F 57.2 °F 88% 30.02 in 10.0 mi East 6.9 mph - N/A   Overcast
8:56 AM 61.0 °F 57.9 °F 90% 30.00 in 10.0 mi East 8.1 mph - N/A   Overcast
9:56 AM 62.1 °F 59.0 °F 90% 29.99 in 10.0 mi East 8.1 mph - N/A   Overcast
10:56 AM 66.0 °F 60.1 °F 81% 29.97 in 10.0 mi ESE 10.4 mph - N/A   Overcast
11:10 AM 66.2 °F 59.0 °F 78% 30.00 in 10.0 mi ESE 11.5 mph - N/A   Overcast
11:56 AM 66.9 °F 60.1 °F 79% 29.94 in 10.0 mi ESE 9.2 mph - N/A   Overcast
12:56 PM 68.0 °F 60.1 °F 76% 29.92 in 10.0 mi East 6.9 mph - N/A   Overcast
1:17 PM 68.0 °F 60.8 °F 78% 29.95 in 10.0 mi East 5.8 mph - N/A   Overcast
1:56 PM 68.0 °F 61.0 °F 78% 29.91 in 10.0 mi East 4.6 mph - N/A   Overcast
2:56 PM 68.0 °F 61.0 °F 78% 29.91 in 10.0 mi East 5.8 mph - N/A   Overcast
3:56 PM 68.0 °F 61.0 °F 78% 29.91 in 10.0 mi SE 6.9 mph - N/A   Overcast
4:25 PM 66.2 °F 60.8 °F 83% 29.95 in 10.0 mi ESE 6.9 mph - N/A   Overcast
4:56 PM 66.9 °F 61.0 °F 81% 29.91 in 10.0 mi East 4.6 mph - N/A   Overcast
5:56 PM 66.0 °F 61.0 °F 84% 29.92 in 10.0 mi East 5.8 mph - N/A   Overcast
6:56 PM 64.9 °F 60.1 °F 84% 29.93 in 10.0 mi East 6.9 mph - N/A   Overcast
7:56 PM 64.9 °F 60.1 °F 84% 29.94 in 10.0 mi East 5.8 mph - N/A   Overcast
8:56 PM 64.0 °F 59.0 °F 84% 29.94 in 10.0 mi East 3.5 mph - N/A   Overcast
9:56 PM 61.0 °F 57.9 °F 90% 29.95 in 10.0 mi SE 3.5 mph - N/A   Mostly Cloudy
10:14 PM 60.8 °F 57.2 °F 88% 29.99 in 10.0 mi ESE 3.5 mph - N/A   Scattered Clouds
10:56 PM 60.1 °F 57.9 °F 93% 29.95 in 10.0 mi ESE 5.8 mph - N/A   Scattered Clouds
11:14 PM 62.6 °F 59.0 °F 88% 29.98 in 10.0 mi East 3.5 mph - N/A   Mostly Cloudy
11:29 PM 60.8 °F 57.2 °F 88% 29.98 in 10.0 mi East 5.8 mph - N/A   Scattered Clouds
11:56 PM 60.1 °F 57.9 °F 93% 29.94 in 10.0 mi Calm Calm - N/A   Mostly Cloudy